Location: Peebles
(55.6412°N, 3.1714°W)
Time: 20:41:02
(UTC+01:00)

Vanguard 2 Rocket - Visible Passes

Search period start: 02 October 2022 00:00
Search period end: 12 October 2022 00:00
Orbit: 553 x 3323 km, 32.9° (Epoch: 02 October)

Date Brightness Start Highest point End Pass type
(mag) Time Alt. Az. Time Alt. Az. Time Alt. Az.
04 Oct 10.5 22:48:35 10° SSW 22:48:39 10° SSW 22:48:39 10° SSW visible
05 Oct 10.3 21:48:27 10° S 21:52:20 14° S 21:52:20 14° S visible
06 Oct 10.3 20:49:39 10° S 20:55:27 12° SSE 20:55:59 12° SSE visible
06 Oct 10.4 22:58:24 10° SSW 23:01:46 15° SSW 23:01:46 15° SSW visible
07 Oct 10.1 21:57:23 10° SSW 22:05:21 19° S 22:05:21 19° S visible
08 Oct 10.6 00:10:57 10° SW 00:11:08 10° SW 00:11:08 10° SW visible
08 Oct 10.1 20:57:05 10° S 21:07:27 18° SSE 21:08:52 18° SSE visible
08 Oct 10.2 23:09:01 10° SW 23:14:39 19° SSW 23:14:39 19° SSW visible
09 Oct 10.2 19:57:55 10° S 20:06:40 15° SSE 20:12:20 12° SE visible
09 Oct 10.0 22:07:29 10° SSW 22:18:06 24° S 22:18:06 24° S visible
10 Oct 10.5 00:22:26 10° WSW 00:23:52 12° SW 00:23:52 12° SW visible
10 Oct 10.5 19:01:21 10° SSE 19:05:54 11° SE 19:10:14 10° SE visible
10 Oct 10.0 21:06:29 10° SSW 21:19:27 23° SSE 21:21:30 23° SSE visible
10 Oct 10.2 23:20:10 10° SW 23:27:15 22° SSW 23:27:15 22° SSW visible
11 Oct 10.1 20:06:16 10° SSW 20:18:28 20° SSE 20:24:50 16° SE visible
11 Oct 9.9 22:18:15 10° SW 22:30:35 27° S 22:30:35 27° S visible
